Regional Weather Roundup
Issued by NWS Portland, ME

Home | Current Version | Previous Version | Text Only | Print | Product List | Glossary On
Versions: 1 2 3 4 5 6 7 8 9 10 11 12 13 14 15 16 17 18 19 20 21 22 23 24 25 26 27 28 29 30 31 32 33 34 35 36 37 38 39 40 41 42 43 44 45 46 47 48 49 50
000
ASUS41 KGYX 090210
RWRGYX
WEATHER ROUNDUP FOR MAINE AND NEW HAMPSHIRE
NATIONAL WEATHER SERVICE GRAY ME
900 PM EST MON FEB 08 2016

MEZ002-005-006-010-012-015-018-020-021-024-026-027-029-090300-
MAINE

CITY           SKY/WX    TMP DP  RH WIND       PRES   REMARKS
PORTLAND       SNOW      19  15  84 N16       29.82S VSB 1/2 WCI   4
SANFORD        CLOUDY    18  14  86 N15       29.80S WCI   3
BAR HARBOR     CLOUDY    19  18  93 N17G24    29.74R WCI   4
WISCASSET      LGT SNOW  19  15  84 VRB5      29.82R FOG
ROCKLAND       LGT SNOW  20  15  81 N10G21    29.77R WCI   9
FRYEBURG       LGT SNOW  20  16  84 VRB6      29.83S FOG
LEWISTONAUBURN CLOUDY    18  12  79 N15       29.81S WCI   3
AUGUSTA        LGT SNOW  17  12  80 N15       29.82R WCI   2
WATERVILLE     LGT SNOW  18  11  74 N14       29.79S WCI   4
BANGOR         LGT SNOW  18  12  77 N15       29.81R WCI   4
GREENVILLE       N/A     13   2  61 N9        29.75R
MILLINOCKET    CLOUDY    20   4  50 N9        29.85R
HOULTON        CLOUDY    16   7  67 N18       29.81F WCI   0
PRESQUE ISLE   CLOUDY    16   6  65 NE14      29.87F WCI   2
FRENCHVILLE    CLOUDY    13   1  59 N10       29.87F WCI   0
CARIBOU        CLOUDY    16   5  62 N12G23    29.85F WCI   3
$$

NHZ002-005-008-009-011-012-014-090300-
NEW HAMPSHIRE

CITY           SKY/WX    TMP DP  RH WIND       PRES   REMARKS
PORTSMOUTH     LGT SNOW  19  15  84 N15G23    29.79S VSB 1   WCI   5
ROCHESTER      LGT SNOW  19  14  81 N13       29.79S WCI   6
NASHUA         LGT SNOW  19  18  93 N8        29.82S FOG
MANCHESTER     LGT SNOW  20  16  84 N9        29.80S VSB 1
CONCORD        LGT SNOW  20  16  84 N9        29.81S VSB 1
LACONIA        CLOUDY    19  16  86 NE5       29.81S
PLYMOUTH       LGT SNOW  21  19  91 CALM      29.80F
BERLIN         LGT SNOW  19   9  65 CALM      29.80R
WHITEFIELD     LGT SNOW  18  13  80 E7        29.79S VSB 1
JAFFREY        LGT SNOW  19  15  84 VRB5      29.75S FOG
KEENE          CLOUDY    21  16  79 CALM      29.78S
LEBANON        LGT SNOW  22  16  78 NE8       29.80R
MT WASHINGTON  SNOW       1   1 100 E28         N/A  VSB 1/16WCI -23
$$

VTZ005-007-008-090300-
VERMONT

CITY           SKY/WX    TMP DP  RH WIND       PRES   REMARKS
ST JOHNSBURY     N/A     22  13  68 MISG      29.79F
MONTPELIER     LGT SNOW  19  16  88 N5        29.81S FOG
BURLINGTON     LGT SNOW  24  17  74 E6        29.82S
$$

MAZ007-012-024-CTZ003-RIZ002-NYZ038-NYZ072-090300-
SOUTHERN NEW ENGLAND AND NY

CITY           SKY/WX    TMP DP  RH WIND       PRES   REMARKS
BOSTON         LGT SNOW  20  16  84 N13       29.80R FOG     WCI   7
WORCESTER      LGT SNOW  18  13  80 N13G21    29.73S VSB 1   WCI   5
NANTUCKET      LGT SNOW  33  30  88 N21G28    29.67R FOG
PROVIDENCE     LGT SNOW  21  17  84 N15G21    29.79R FOG     WCI   8
HARTFORD       LGT SNOW  23  19  85 NW5       29.80R FOG
ALBANY         LGT SNOW  25  21  85 W6        29.81S FOG
NEW YORK CITY  FLURRIES  29  23  78 NE9       29.80R
$$

ANZ081-ANZ082-ANZ150-NHZ014-MEZ023>029-090300-
COASTAL MARINE OBSERVATIONS

STATION/POSITION TIME  TEMP    WIND        PRES    WAVE
                       AIR SEA DIR/SP/G            HT/PER
                 (UTC) (F)     (DEG/KT/KT) (MB)    (FT/S)
MOUNT DESERT ROC 0200   24     350/ 33/ 38 1004.8R
MATINICUS ROCK   0100           20/ 27/ 32 1006.1R
ISLE OF SHOALS   0100   21      10/ 26/ 31 1007.9R
JEFFREYS LEDGE   0104      44                N/A    18/11
CASHES LEDGE BUO 0150   27 44  360/ 27/ 33 1004.5R  15/11
GEORGES BANK BUO 0150   40 54               994.6R  24/15
$$

.............KEY..............
   WCI - WIND CHILL
   TC  - TEMPERATURE IN CELSIUS
   VSB - VISIBILITY IN MILES
   HX  - HEAT INDEX
   FAIR- INDICATES FEW OR NO CLOUDS BELOW 12,000 FT, WITH NO
         SIGNIFICANT WEATHER AND/OR OBSTRUCTIONS TO VISIBILITY.





USA.gov is the U.S. government's official web portal to all federal, state and local government web resources and services.